IRIDIUM 144 (43249 NORAD) Tracking and Keplerian Element Data

This shows tracking and keplerian element data for the satellite.

Feedback or suggestion? Click here.




ElementValue
Catalog43249
NameIRIDIUM 144
Epoch Orbit422
Epoch Day118.51034746
Epoch Year2018
RAAN92.3141
Inclination86.3944
Eccentricity0.0001707
Argument of Perigee80.21
Mean Anonmoly279.9288
Mean Motion14.34238208
Decay Rate4.2E-07
L11 43249U 18030A 18118.51034746 .00000042 00000-0 79222-5 0 9996
L22 43249 86.3944 92.3141 0001707 80.2100 279.9288 14.34238208 4222

Live tracking and technical data element details for IRIDIUM 144 (NORAD 43249). IRIDIUM 144 can be tracked NOW for your location showing map with azimuth and elevation plus other details from your city location.

Track the satellite on the map from your city or location and see movement details for azimuth, elevation, latitude, longitude, range, height, and movement on the map or in text.







IsCatalogInMostPopularTable: catalog: 43249, numindb: 64
Update: records affected: 1



GetName: 43249 IRIDIUM 144

Hit Count: updated at: Thu, 15 Nov 2018 03:57:06 GMT